Балх

Таджикистан     37°35′42″N   68°39′20″E
темп.,
°C
ветер,
м/с
пор.,
м/с
влажн.,
%
обл.,
%
осадки,
мм/ч
давл.,
гПа
погр.,
м
18 апреля, вс
вс1823:00+19юв3442100 0.0 101542
02:00+18ююв334795 0.0 101637
05:00+15ю344893 0.0 101852
08:00+17ююв235760 0.3 1021232
11:00+21з24401 0.3 10221618
14:00+25зюз662524 0.0 10203107
17:00+25зюз34221 0.0 10182994
20:00+18ссв34470 0.0 101970
19 апреля, пн
пн1923:00+15ссв57595 0.0 1020126
02:00+13ссв47585 0.0 1019122
05:00+12ссв46570 0.0 101894
08:00+16ссв34473 0.0 1017244
11:00+23св33290 0.0 10151029
14:00+26св44210 0.0 10121829
17:00+26ссв44205 0.0 10091701
20:00+19всв22335 0.0 101011
20 апреля, вт
вт2023:00+17св223849 0.0 101111
02:00+15ссв2243100 0.0 101119
05:00+14с2243100 0.0 101122
08:00+17ссв1135100 0.0 1013155
11:00+22ю2231100 0.0 1013664
14:00+23ююз3328100 0.0 1012985
17:00+23юв2331100 0.0 1011475
20:00+19в2238100 0.0 101215
21 апреля, ср
ср2123:00+18ссв2344100 0.1 101336
02:00+16ссв225413 0.0 101434
05:00+15с11547 0.0 101415
08:00+18св224877 0.0 1016210
11:00+24ююз353486 0.0 10141134
14:00+27зюз69247 0.0 10122999
17:00+26з91026100 0.0 10102294
20:00+21зюз611320 0.0 1012239
22 апреля, чт
чт2223:00+18ююз34400 0.0 101354
02:00+16ю234796 0.0 101539
05:00+13св01600 0.0 101718
08:00+16ссв1149100 0.0 1019242
11:00+21з2328100 0.0 10191100
14:00+24з2220100 0.0 10181838
17:00+24в12182 0.0 10172018
20:00+19в11282 0.0 101811